Location: *
(46.3500°N, 10.9000°E)
Time: 00:02:05
(UTC+00:00)

Vanguard 2 - Pass Details

Date: 27 April 2021
Orbit: 552 x 2938 km, 32.9° (Epoch: 12 May)

Event Time Altitude Azimuth Distance (km) Brightness Sun altitude
Rises 09:56:50 0° 237° (WSW) 6,660 12.3 53.8°
Reaches altitude 10° 10:01:28 10° 231° (SW) 5,737 12.2 54.2°
Maximum altitude 10:17:42 45° 168° (SSE) 3,445 13.0 55.5°
Drops below altitude 10° 10:30:54 10° 102° (ESE) 4,735 11.9 56.4°
Sets 10:34:18 0° 96° (E) 5,454 12.1 56.6°
